Weather History for Hohn, Germany

Change the Weather History Date:

Saturday, December 8, 2012

  Actual Average Record
Temperature  
Mean Temperature 13 °F -  
Max Temperature 23 °F - - ()
Min Temperature 5 °F - - ()
Degree Days  
Heating Degree Days 52    
Moisture  
Dew Point 12 °F    
Average Humidity 93    
Maximum Humidity 100    
Minimum Humidity 85    
Precipitation  
Precipitation 0.00 in - - ()
Sea Level Pressure  
Sea Level Pressure 30.10 in    
Wind  
Wind Speed 2 mph ()    
Max Wind Speed 4 mph    
Max Gust Speed -    
Visibility 1.7 miles    
Events Fog , Snow    
T = Trace of Precipitation, MM = Missing Value Source: Averaged Metar Reports

Daily Weather History Graph

Daily Weather History Graph

Search for Another Location

Airport:

Trip Planner

Search our weather history database for the weather conditions in past years. The results will help you decide how hot, cold, wet, or windy it might be!

Date:

Astronomy

Dec. 08, 2012 Rise Set
Actual Time 8:29 AM CET 3:58 PM CET
Civil Twilight 7:45 AM CET 4:41 PM CET
Nautical Twilight 6:59 AM CET 5:28 PM CET
Astronomical Twilight 6:16 AM CET 6:11 PM CET
Moon 1:50 AM CET (12/8) 12:59 PM CET (12/8)
Length of Visible Light 8h 56m
Length of Day
7h 29m
Waning Crescent, 31% of the Moon is Illuminated
Dec 8
Waning Crescent
Dec 13
New
Dec 20
First Quarter
Dec 28
Full
Jan 5
Last Quarter

Hourly Weather History & Observations

Time (CET) Temp. Windchill Dew Point Humidity Pressure Visibility Wind Dir Wind Speed Gust Speed Precip Events Conditions
12:20 AM 6.8 °F -0.1 °F 5.0 °F 92% 29.95 in 1.9 mi West 3.5 mph - N/A   Mist
1:20 AM 5.0 °F - 3.2 °F 92% 29.98 in 1.9 mi NNW 2.3 mph - N/A   Mist
2:20 AM 6.8 °F - 5.0 °F 92% 29.98 in 1.9 mi South 2.3 mph - N/A   Mist
3:20 AM 6.8 °F - 3.2 °F 85% 30.01 in 1.9 mi WSW 2.3 mph - N/A   Mist
4:20 AM 6.8 °F - 3.2 °F 85% 30.01 in 0.2 mi NNW 1.2 mph - N/A Fog Light Freezing Fog
5:20 AM 6.8 °F - 5.0 °F 92% 30.04 in 0.2 mi West 2.3 mph - N/A Fog Light Freezing Fog
6:20 AM 10.4 °F - 8.6 °F 92% 30.04 in 1.0 mi Variable 1.2 mph - N/A Fog Fog
7:20 AM 10.4 °F - 8.6 °F 92% 30.06 in 2.2 mi WNW 2.3 mph - N/A   Mostly Cloudy
8:20 AM 12.2 °F 6.1 °F 10.4 °F 92% 30.06 in 1.1 mi West 3.5 mph - N/A   Mist
9:20 AM 14.0 °F 8.2 °F 14.0 °F 100% 30.09 in 1.7 mi West 3.5 mph - N/A   Mostly Cloudy
10:20 AM 17.6 °F - 15.8 °F 93% 30.12 in 2.5 mi WNW 2.3 mph - N/A   Mostly Cloudy
11:20 AM 17.6 °F 12.3 °F 15.8 °F 93% 30.12 in 3.1 mi West 3.5 mph - N/A   Mostly Cloudy
12:20 PM 19.4 °F 14.3 °F 17.6 °F 93% 30.15 in 2.8 mi West 3.5 mph - N/A   Mostly Cloudy
1:20 PM 21.2 °F 16.4 °F 19.4 °F 93% 30.15 in 2.5 mi West 3.5 mph - N/A   Mostly Cloudy
2:20 PM 19.4 °F - 17.6 °F 93% 30.15 in 2.5 mi SW 2.3 mph - N/A   Mostly Cloudy
3:20 PM 19.4 °F 14.3 °F 17.6 °F 93% 30.15 in 2.5 mi West 3.5 mph - N/A   Mostly Cloudy
4:20 PM 15.8 °F - 14.0 °F 93% 30.15 in 0.0 mi Calm Calm - N/A Fog Light Freezing Fog
5:20 PM 14.0 °F - 12.2 °F 93% 30.18 in 0.2 mi West 1.2 mph - N/A Fog Light Freezing Fog
6:20 PM 10.4 °F - 8.6 °F 92% 30.18 in 0.2 mi SE 2.3 mph - N/A Fog Light Freezing Fog
7:20 PM 10.4 °F - 8.6 °F 92% 30.18 in 0.2 mi Variable 1.2 mph - N/A Fog Light Freezing Fog
7:45 PM 10.4 °F - 8.6 °F 92% 30.18 in 1.2 mi SE 2.3 mph - N/A   Mostly Cloudy
8:20 PM 12.2 °F - 10.4 °F 92% 30.18 in 2.8 mi SSE 2.3 mph - N/A   Mostly Cloudy
9:20 PM 15.8 °F 10.2 °F 14.0 °F 93% 30.15 in 2.8 mi SE 3.5 mph - N/A   Mostly Cloudy
10:20 PM 19.4 °F 14.3 °F 19.4 °F 100% 30.12 in 2.5 mi SE 3.5 mph - N/A Snow Light Snow
11:20 PM 23.0 °F 18.4 °F 23.0 °F 100% 30.09 in 1.7 mi SE 3.5 mph - N/A Snow Snow